Superior, WI

3:05 PM CST on December 16, 2017 (GMT -0600)
Bong

Weather History for KSUW - February, 2014

Change the Weather History Date:

Tuesday, February 25, 2014

  Actual Average Record
Temperature  
Mean Temperature -2 °F -  
Max Temperature 7 °F 29 °F 31 °F (2016)
Min Temperature -12 °F 9 °F -12 °F (2014)
Degree Days  
Heating Degree Days 68    
Moisture  
Dew Point -12 °F    
Average Humidity 62    
Maximum Humidity 80    
Minimum Humidity 50    
Precipitation  
Precipitation 0.00 in - - ()
Sea Level Pressure  
Sea Level Pressure 30.23 in    
Wind  
Wind Speed 9 mph (WNW)    
Max Wind Speed 20 mph    
Max Gust Speed 25 mph    
Visibility 10 miles    
Events      
Averages and records for this station are not official NWS values.
T = Trace of Precipitation, MM = Missing Value Source: NWS Daily Summary

Daily Weather History Graph

Daily Weather History Graph

Search for Another Location

Airport or City:

Trip Planner

Search our weather history database for the weather conditions in past years. The results will help you decide how hot, cold, wet, or windy it might be!

Date:

Astronomy

Feb. 25, 2014 Rise Set
Actual Time 6:55 AM CST 5:48 PM CST
Civil Twilight 6:24 AM CST 6:18 PM CST
Nautical Twilight 5:49 AM CST 6:54 PM CST
Astronomical Twilight 5:14 AM CST 7:29 PM CST
Moon 4:00 AM CST (2/25) 1:44 PM CST (2/25)
Length of Visible Light 11h 54m
Length of Day
10h 53m
Waning Crescent, 18% of the Moon is Illuminated
Feb 25
Waning Crescent
Mar 1
New
Mar 8
First Quarter
Mar 16
Full
Mar 23
Last Quarter

Hourly Weather History & Observations

Time (CST) Temp. Windchill Dew Point Humidity Pressure Visibility Wind Dir Wind Speed Gust Speed Precip Events Conditions
12:15 AM 0.3 °F -14.8 °F -10.5 °F 60% 30.26 in 10.0 mi West 9.2 mph - N/A   Clear
12:35 AM -1.1 °F -16.6 °F -11.0 °F 63% 30.26 in 10.0 mi WNW 9.2 mph - N/A   Clear
12:55 AM -1.5 °F -17.1 °F -11.2 °F 63% 30.26 in 10.0 mi WNW 9.2 mph - N/A   Clear
1:15 AM -2.6 °F -10.8 °F -11.4 °F 66% 30.26 in 10.0 mi West 3.5 mph - N/A   Clear
1:30 AM -2.4 °F -17.1 °F -11.2 °F 66% 30.26 in 10.0 mi West 8.1 mph - N/A   Clear
1:55 AM -3.3 °F -20.3 °F -11.4 °F 68% 30.26 in 10.0 mi West 10.4 mph - N/A   Clear
2:15 AM -4.0 °F -16.3 °F -12.1 °F 68% 30.26 in 10.0 mi West 5.8 mph - N/A   Clear
3:55 AM -6.0 °F -18.6 °F -12.8 °F 72% 30.25 in 10.0 mi WSW 5.8 mph - N/A   Clear
4:15 AM -6.9 °F -19.7 °F -13.2 °F 74% 30.25 in 10.0 mi WSW 5.8 mph - N/A   Clear
4:35 AM -7.4 °F -20.4 °F -13.5 °F 75% 30.25 in 10.0 mi WSW 5.8 mph - N/A   Clear
4:55 AM -7.6 °F -20.6 °F -13.4 °F 76% 30.24 in 10.0 mi WSW 5.8 mph - N/A   Clear
5:15 AM -8.1 °F -22.7 °F -13.9 °F 76% 30.24 in 10.0 mi WSW 6.9 mph - N/A   Clear
5:35 AM -9.0 °F -23.8 °F -14.8 °F 76% 30.24 in 10.0 mi West 6.9 mph - N/A   Clear
5:55 AM -8.9 °F -22.1 °F -14.6 °F 76% 30.24 in 10.0 mi WSW 5.8 mph - N/A   Clear
6:15 AM -9.8 °F -26.1 °F -15.0 °F 78% 30.24 in 10.0 mi WSW 8.1 mph - N/A   Clear
6:35 AM -11.2 °F -23.0 °F -15.9 °F 80% 30.24 in 10.0 mi WSW 4.6 mph - N/A   Clear
6:55 AM -11.2 °F -24.8 °F -16.1 °F 79% 30.24 in 10.0 mi SW 5.8 mph - N/A   Clear
7:15 AM -12.5 °F -26.3 °F -17.1 °F 80% 30.24 in 10.0 mi SW 5.8 mph - N/A   Clear
7:35 AM -11.7 °F -25.5 °F -16.6 °F 79% 30.25 in 10.0 mi SW 5.8 mph - N/A   Clear
7:55 AM -10.8 °F -26.0 °F -16.1 °F 78% 30.24 in 10.0 mi SW 6.9 mph - N/A   Clear
8:15 AM -9.0 °F -23.8 °F -15.3 °F 74% 30.25 in 10.0 mi WSW 6.9 mph - N/A   Clear
8:35 AM -7.8 °F -20.8 °F -15.0 °F 71% 30.24 in 10.0 mi West 5.8 mph - N/A   Clear
8:55 AM -6.7 °F -21.0 °F -14.8 °F 68% 30.24 in 10.0 mi West 6.9 mph - N/A   Clear
9:15 AM -5.8 °F -21.2 °F -14.3 °F 67% 30.24 in 10.0 mi West 8.1 mph - N/A   Clear
9:35 AM -4.4 °F -19.5 °F -13.5 °F 65% 30.24 in 10.0 mi West 8.1 mph - N/A   Clear
9:55 AM -3.3 °F -13.7 °F -13.0 °F 63% 30.24 in 10.0 mi West 4.6 mph - N/A   Clear
10:15 AM -2.4 °F -15.8 °F -12.8 °F 61% 30.24 in 10.0 mi West 6.9 mph - N/A   Mostly Cloudy
10:35 AM -1.1 °F -17.6 °F -12.1 °F 60% 30.23 in 10.0 mi West 10.4 mph - N/A   Overcast
11:15 AM 1.4 °F -14.5 °F -11.2 °F 56% 30.22 in 10.0 mi West 10.4 mph 16.1 mph N/A   Mostly Cloudy
11:35 AM 2.5 °F -13.1 °F -10.5 °F 55% 30.22 in 10.0 mi West 10.4 mph - N/A   Scattered Clouds
11:55 AM 3.6 °F -13.4 °F -9.9 °F 54% 30.22 in 10.0 mi WNW 12.7 mph 19.6 mph N/A   Clear
12:15 PM 4.3 °F -13.2 °F -9.8 °F 52% 30.21 in 10.0 mi NW 13.8 mph 18.4 mph N/A   Clear
12:35 PM 4.5 °F -11.5 °F -9.4 °F 53% 30.21 in 10.0 mi WNW 11.5 mph 18.4 mph N/A   Clear
12:55 PM 4.6 °F -13.4 °F -9.4 °F 52% 30.20 in 10.0 mi NW 15.0 mph 18.4 mph N/A   Clear
1:15 PM 5.5 °F -9.3 °F -9.2 °F 51% 30.19 in 10.0 mi NW 10.4 mph - N/A   Scattered Clouds
1:35 PM 6.3 °F -10.7 °F -8.5 °F 51% 30.19 in 10.0 mi NW 13.8 mph 23.0 mph N/A   Scattered Clouds
1:55 PM 6.6 °F -12.1 °F -8.5 °F 50% 30.18 in 10.0 mi NNW 17.3 mph 25.3 mph N/A   Mostly Cloudy
2:15 PM 7.0 °F -12.6 °F -8.0 °F 51% 30.18 in 10.0 mi NW 19.6 mph 25.3 mph N/A   Overcast
2:35 PM 6.8 °F -12.4 °F -7.8 °F 51% 30.18 in 10.0 mi NW 18.4 mph 21.9 mph N/A   Overcast
2:55 PM 6.3 °F -12.5 °F -8.3 °F 51% 30.18 in 10.0 mi NW 17.3 mph 25.3 mph N/A   Overcast
3:15 PM 6.3 °F -11.3 °F -6.7 °F 55% 30.19 in 10.0 mi NW 15.0 mph - N/A   Mostly Cloudy
3:35 PM 6.4 °F -13.3 °F -8.0 °F 52% 30.19 in 10.0 mi NW 19.6 mph 23.0 mph N/A   Mostly Cloudy
3:55 PM 5.9 °F -9.7 °F -6.9 °F 56% 30.19 in 10.0 mi NW 11.5 mph - N/A   Mostly Cloudy
4:15 PM 5.5 °F -10.2 °F -7.8 °F 54% 30.19 in 10.0 mi WNW 11.5 mph 21.9 mph N/A   Mostly Cloudy
4:35 PM 5.7 °F -13.8 °F -8.1 °F 53% 30.19 in 10.0 mi NW 18.4 mph 21.9 mph N/A   Mostly Cloudy
4:55 PM 5.0 °F -11.6 °F -7.1 °F 58% 30.19 in 10.0 mi NW 12.7 mph 16.1 mph N/A   Mostly Cloudy
5:15 PM 4.5 °F -13.7 °F -9.9 °F 51% 30.19 in 10.0 mi WNW 15.0 mph 18.4 mph N/A   Mostly Cloudy
5:35 PM 4.1 °F -14.7 °F -9.8 °F 53% 30.20 in 10.0 mi NW 16.1 mph 24.2 mph N/A   Mostly Cloudy
5:55 PM 3.7 °F -14.6 °F -10.7 °F 51% 30.21 in 10.0 mi NW 15.0 mph - N/A   Overcast
6:15 PM 2.5 °F -16.2 °F -11.7 °F 52% 30.22 in 10.0 mi NW 15.0 mph 19.6 mph N/A   Scattered Clouds
6:35 PM 1.8 °F -14.9 °F -11.9 °F 53% 30.22 in 10.0 mi NW 11.5 mph - N/A   Clear
6:55 PM 1.6 °F -14.2 °F -11.4 °F 55% 30.23 in 10.0 mi WNW 10.4 mph - N/A   Clear
7:15 PM 1.0 °F -15.8 °F -11.4 °F 56% 30.24 in 10.0 mi WNW 11.5 mph - N/A   Clear
7:35 PM 1.0 °F -15.8 °F -11.9 °F 55% 30.24 in 10.0 mi WNW 11.5 mph 17.3 mph N/A   Clear
7:55 PM 0.5 °F -16.5 °F -12.5 °F 55% 30.24 in 10.0 mi WNW 11.5 mph - N/A   Clear
8:15 PM -0.8 °F -17.2 °F -13.4 °F 55% 30.24 in 10.0 mi WNW 10.4 mph - N/A   Clear
8:35 PM -1.1 °F -18.5 °F -13.0 °F 57% 30.25 in 10.0 mi WNW 11.5 mph - N/A   Clear
8:55 PM -1.8 °F -18.5 °F -13.2 °F 59% 30.25 in 10.0 mi WNW 10.4 mph 21.9 mph N/A   Clear
9:15 PM -2.6 °F -20.3 °F -14.1 °F 58% 30.25 in 10.0 mi WNW 11.5 mph 17.3 mph N/A   Clear
9:35 PM -3.1 °F -21.8 °F -14.8 °F 57% 30.26 in 10.0 mi WNW 12.7 mph 17.3 mph N/A   Clear
9:55 PM -4.2 °F -24.0 °F -15.7 °F 58% 30.26 in 10.0 mi WNW 13.8 mph - N/A   Clear
10:15 PM -4.9 °F -22.3 °F -16.1 °F 59% 30.26 in 10.0 mi West 10.4 mph - N/A   Clear
10:35 PM -5.1 °F -20.4 °F -16.8 °F 57% 30.26 in 10.0 mi West 8.1 mph 17.3 mph N/A   Clear
10:55 PM -5.8 °F -21.2 °F -17.1 °F 58% 30.25 in 10.0 mi West 8.1 mph - N/A   Clear
11:15 PM -6.2 °F -20.4 °F -17.0 °F 60% 30.24 in 10.0 mi West 6.9 mph - N/A   Clear
11:35 PM -6.7 °F -24.5 °F -16.8 °F 62% 30.24 in 10.0 mi West 10.4 mph 20.7 mph N/A   Clear
11:55 PM -7.6 °F -26.6 °F -17.1 °F 63% 30.24 in 10.0 mi West 11.5 mph - N/A   Clear